Погода в Темуко

Чили     38°44′00″S   72°35′41″W
темп.,
°C
ветер,
м/с
пор.,
м/с
влажн.,
%
обл.,
%
осадки,
мм/ч
давл.,
гПа
погр.,
м
14 августа, вс
вс1423:00+5ссв2397100 0.1 101776
02:00+5ссв2697100 0.3 1017183
05:00+4св2597100 0.0 1014134
08:00+6ссв2795100 0.1 1014259
11:00+9с61483100 0.3 10121529
14:00+5з51296100 8.3 10121100
17:00+6з4109097 1.6 1013950
20:00+2ссз2297100 2.4 101728
15 августа, пн
пн1523:00+2ссз249899 1.3 1019117
02:00+1с249833 1.9 102093
05:00+2с279787 0.5 1021210
08:00+1с399726 0.8 1022249
11:00+6с51287100 0.0 10211031
14:00+7ссз51590100 1.2 10191660
17:00+5ссз61896100 6.7 10161572
20:00+5с82096100 14.4 10151439
16 августа, вт
вт1623:00+6с81695100 8.4 10151068
02:00+6с61396100 21.2 1014859
05:00+6с3898100 10.7 1012454
08:00+7ссз2799100 19.5 1012396
11:00+8зсз3997100 5.6 10131246
14:00+8з499597 10.5 1012977
17:00+8зюз49925 1.6 1014961
20:00+5з3994100 1.9 1018517
17 августа, ср
ср1723:00+5з399373 0.4 1021438
02:00+2ссз119595 0.6 102316
05:00+4ссз2594100 0.1 1023132
08:00+4ссз249483 0.2 1025117
11:00+6з3889100 0.7 1026866
14:00+8зюз59827 1.8 10251229
17:00+7зюз488610 0.9 1027898
20:00+3сз11975 1.1 103011
18 августа, чт
чт1823:00+2ссв00975 0.0 103210
02:00+1св11986 0.0 103310
05:000в11986 0.0 103310
08:000юв11987 0.0 103411
11:00+6ю24805 0.0 1033601
14:00+10ю46595 0.0 1030984
17:00+9ю37700 0.0 1028808
20:00+3ююз23960 0.0 102762